This is the latest recevied weather packets stored in our database for station/object WB4FAY-4. If no packets are shown the sender has not sent any weather packets the latest 10 day(s).
| Time | Temp. | Humidity | Pressure | Rain* | Wind** | Luminosity | Snow |
|---|---|---|---|---|---|---|---|
| 1777578317 | 21.11° C | 55% | 1013.9 hPa | 55.37 mm | - | - | - |
| 1777578018 | 21.11° C | 55% | 1014 hPa | 55.37 mm | - | - | - |
| 1777577718 | 21.11° C | 54% | 1014.2 hPa | 55.37 mm | - | - | - |
| 1777577417 | 21.11° C | 55% | 1014.4 hPa | 55.37 mm | - | - | - |
| 1777577117 | 21.11° C | 56% | 1014.3 hPa | 55.37 mm | - | - | - |
| 1777576817 | 21.11° C | 55% | 1014.4 hPa | 55.37 mm | - | - | - |
| 1777576523 | 21.11° C | 57% | 1014.3 hPa | 55.37 mm | - | - | - |
| 1777576217 | 21.11° C | 59% | 1014.3 hPa | 55.37 mm | - | - | - |
| 1777575917 | 21.11° C | 58% | 1014.3 hPa | 55.37 mm | - | - | - |
| 1777575618 | 21.11° C | 61% | 1014.2 hPa | 55.37 mm | - | - | - |
| 1777575317 | 21.11° C | 61% | 1014.4 hPa | 55.37 mm | - | - | - |
| 1777575017 | 21.11° C | 63% | 1014.4 hPa | 55.37 mm | - | - | - |
| 1777574718 | 21.11° C | 60% | 1014.5 hPa | 55.37 mm | - | - | - |
| 1777574417 | 21.11° C | 61% | 1014.5 hPa | 55.37 mm | - | - | - |
| 1777574118 | 21.11° C | 61% | 1014.4 hPa | 55.37 mm | - | - | - |
| 1777573817 | 21.11° C | 63% | 1014.4 hPa | 55.37 mm | - | - | - |
| 1777573518 | 20.56° C | 62% | 1014.5 hPa | 55.37 mm | - | - | - |
| 1777573218 | 20.56° C | 61% | 1014.5 hPa | 55.37 mm | - | - | - |
| 1777572917 | 20.56° C | 60% | 1014.4 hPa | 55.37 mm | - | - | - |
| 1777572618 | 20.56° C | 60% | 1014.4 hPa | 55.37 mm | - | - | - |
| 1777572317 | 20.56° C | 62% | 1014.4 hPa | 55.37 mm | - | - | - |
| 1777572018 | 20.56° C | 61% | 1014.4 hPa | 55.37 mm | - | - | - |
| 1777571717 | 21.11° C | 62% | 1014.5 hPa | 55.37 mm | - | - | - |
| 1777571417 | 21.11° C | 63% | 1014.7 hPa | 55.37 mm | - | - | - |
| 1777571117 | 20.56° C | 63% | 1014.7 hPa | 55.37 mm | - | - | - |
* Rain latest 24 hours (hover to see other rain measurements)
** Current wind speed in m/s (hover to see current wind gust speed)